Weather History for EGNH - October, 2013

Change the Weather History Date:

Thursday, October 31, 2013

  Actual Average Record
Temperature  
Mean Temperature 52 °F -  
Max Temperature 56 °F 48 °F - ()
Min Temperature 48 °F 41 °F - ()
Degree Days  
Heating Degree Days 13    
Growing Degree Days 2 (Base 50)    
Moisture  
Dew Point 48 °F    
Average Humidity 85    
Maximum Humidity 94    
Minimum Humidity 74    
Precipitation  
Precipitation 0.01 in - - ()
Sea Level Pressure  
Sea Level Pressure 29.84 in    
Wind  
Wind Speed 13 mph ()    
Max Wind Speed 25 mph    
Max Gust Speed -    
Visibility 6.2 miles    
Events Rain    
T = Trace of Precipitation, MM = Missing Value Source: Averaged Metar Reports

Daily Weather History Graph

Daily Weather History Graph

Search for Another Location

Airport or City:

Trip Planner

Search our weather history database for the weather conditions in past years. The results will help you decide how hot, cold, wet, or windy it might be!

Date:

Astronomy

Oct. 31, 2013 Rise Set
Actual Time 7:10 AM GMT 4:40 PM GMT
Civil Twilight 6:33 AM GMT 5:17 PM GMT
Nautical Twilight 5:51 AM GMT 5:59 PM GMT
Astronomical Twilight 5:10 AM GMT 6:39 PM GMT
Moon 3:17 AM GMT (10/31) 3:13 PM GMT (10/31)
Length of Visible Light 10h 44m
Length of Day
9h 30m
Waning Crescent, 11% of the Moon is Illuminated
Oct 31
Waning Crescent
Nov 3
New
Nov 10
First Quarter
Nov 17
Full
Nov 25
Last Quarter

Hourly Weather History & Observations

Time (GMT) Temp. Dew Point Humidity Pressure Visibility Wind Dir Wind Speed Gust Speed Precip Events Conditions
12:00 AM 52 °F 46 °F 75%  in - West 15.0 mph - -  
3:00 AM 51 °F 49 °F 91%  in - SW 9.2 mph - -  
6:00 AM 51 °F 48 °F 85%  in - SW 11.5 mph - -  
6:20 AM 50.0 °F 46.4 °F 87% 29.92 in 6.2 mi SSE 9.2 mph - N/A   Mostly Cloudy
6:50 AM 48.2 °F 46.4 °F 93% 29.89 in 6.2 mi SE 8.1 mph - N/A   Scattered Clouds
7:20 AM 48.2 °F 46.4 °F 93% 29.89 in 6.2 mi SSE 9.2 mph - N/A   Scattered Clouds
7:50 AM 48.2 °F 46.4 °F 93% 29.89 in 6.2 mi SSE 10.4 mph - N/A   Scattered Clouds
8:20 AM 50.0 °F 48.2 °F 94% 29.89 in 6.2 mi SSE 11.5 mph - N/A Rain Light Rain Showers
8:50 AM 50.0 °F 48.2 °F 94% 29.89 in 6.2 mi South 13.8 mph - N/A Rain Light Rain Showers
9:00 AM 51 °F 47 °F 83%  in - South 13.8 mph - -  
9:20 AM 51.8 °F 48.2 °F 88% 29.89 in 6.2 mi South 13.8 mph - N/A   Scattered Clouds
9:50 AM 51.8 °F 48.2 °F 88% 29.89 in 6.2 mi South 12.7 mph - N/A   Mostly Cloudy
10:20 AM 51.8 °F 48.2 °F 88% 29.89 in 6.2 mi South 12.7 mph - N/A   Scattered Clouds
10:50 AM 53.6 °F 48.2 °F 82% 29.89 in 6.2 mi South 13.8 mph - N/A   Scattered Clouds
11:20 AM 53.6 °F 48.2 °F 82% 29.86 in 6.2 mi SSW 15.0 mph - N/A Rain Rain Showers
11:50 AM 55.4 °F 50.0 °F 82% 29.86 in 6.2 mi SSW 19.6 mph - N/A   Scattered Clouds
12:00 PM 55 °F 50 °F 77%  in - SW 20.7 mph - -  
12:50 PM 55.4 °F 50.0 °F 82% 29.86 in 6.2 mi SSW 17.3 mph - N/A   Scattered Clouds
1:20 PM 55.4 °F 50.0 °F 82% 29.83 in 6.2 mi SW 19.6 mph - N/A   Scattered Clouds
2:20 PM 55.4 °F 50.0 °F 82% 29.83 in 6.2 mi SSW 18.4 mph - N/A   Scattered Clouds
2:50 PM 55.4 °F 50.0 °F 82% 29.83 in 6.2 mi SSW 17.3 mph - N/A   Mostly Cloudy
3:00 PM 55 °F 49 °F 74%  in - SSW 17.3 mph - -  
3:20 PM 55.4 °F 50.0 °F 82% 29.80 in 6.2 mi SSW 17.3 mph - N/A   Scattered Clouds
3:50 PM 55.4 °F 50.0 °F 82% 29.80 in 6.2 mi SSW 18.4 mph - N/A   Partly Cloudy
4:20 PM 55.4 °F 48.2 °F 77% 29.80 in 6.2 mi SW 19.6 mph - N/A   Partly Cloudy
4:50 PM 53.6 °F 48.2 °F 82% 29.80 in 6.2 mi SSW 19.6 mph - N/A   Partly Cloudy
5:20 PM 55.4 °F 48.2 °F 77% 29.80 in 6.2 mi SSW 16.1 mph - N/A   Partly Cloudy
5:50 PM 53.6 °F 50.0 °F 88% 29.80 in 6.2 mi SSW 15.0 mph - N/A   Partly Cloudy
6:00 PM 54 °F 48 °F 75%  in - SW 16.1 mph - -  
6:20 PM 51.8 °F 48.2 °F 88% 29.80 in 6.2 mi West 19.6 mph - N/A Rain Light Rain
7:20 PM 50.0 °F 48.2 °F 94% 29.80 in 6.2 mi SW 18.4 mph - N/A   Scattered Clouds
7:50 PM 51.8 °F 48.2 °F 88% 29.77 in 6.2 mi SW 18.4 mph - N/A   Mostly Cloudy
8:20 PM 53.6 °F 50.0 °F 88% 29.77 in 6.2 mi SW 19.6 mph - N/A   Partly Cloudy
8:50 PM 51.8 °F 48.2 °F 88% 29.77 in 6.2 mi WSW 23.0 mph - N/A Rain Light Rain
9:00 PM 53 °F 48 °F 77%  in - West 25.3 mph - -